一网星座-0662星 (ONEWEB-0662)

导读

ONEWEB-0662是英国OneWeb公司的低轨宽带互联网卫星,于格林尼治时间2023年3月9日由SpaceX猎鹰9号火箭发射,属于OneWeb第一代全球卫星互联网星座组网卫星。该卫星运行在近地轨道,为OneWeb提供高速低延迟的全球宽带接入服务,助力OneWeb完成第一代600余颗卫星的组网部署,推动覆盖全球的卫星互联网服务落地,填补偏远地区网络覆盖空白,服务企业与政府客户的通信需求。

Basic Information
目录编号:
55822
目录名称:
ONEWEB-0662
国际标识:
2023-029AC
轨道中心:
EARTH
卫星名称:
一网星座-0662星
卫星全名:
一网星座-0662星 (ONEWEB-0662)
卫星状态:
在轨 (已飞行1237 天)
发射日期:
2023-03-09 UTC
国别 :
英国 (GB)
星等 :
--
Orbit Information
数据来源 国际轨道数据 AOE轨道数据
星历时间 2026-07-27T13:37:32+0800
20小时前
查看轨道信息
2026-07-22T01:00:00+0800
6天前
查看轨道信息
半长轴 7583.927km 7583.946km
偏心率 0.0002096 0.0002007
轨道倾角 87.895° 87.895°
近地点辐角 107.198° 112.088°
升交点赤经 281.766° 282.867°
平近点角 252.938° 32.444°
近地点 1204.2km 1204.286km
远地点 1207.38km 1207.332km
周期 109.547分钟 109.548分钟
每日圈数 13.145031 13.144982
Detailed Information
平衡模式:
三轴稳定
覆盖范围:
全球
运营商:
一网卫星公司
运营商所在国:
英国
制造商(研发单位):
一网卫星公司
制造商所在国:
英国
使用方式:
暂无
Satellite Introduction
OneWeb卫星网络由648颗重约125公斤的微型卫星组成,运行在1200公里的轨道上。 每颗卫星都能够提供至少每秒8千兆位的吞吐量,以使用其高吞吐量的Ku频段有效载荷为家庭和移动平台提供互联网接入。该卫星仍在工作。
2D Orbit Map
3D Orbit Map
Orbit Altitude Analysis Chart
Orbit Inclination Analysis Chart
Orbit Comprehensive Analysis Chart
View Comprehensive Chart